Year,Month,Day,Hour,Minute,Value (Times are PST for temperature in C)
2013,10,01,00,00,10.00
2013,10,01,00,01,10.10
2013,10,01,00,02,10.10
2013,10,01,00,03,10.10
2013,10,01,00,04,10.10
2013,10,01,00,05,10.10
2013,10,01,00,06,10.10
2013,10,01,00,07,10.20
2013,10,01,00,08,10.20
2013,10,01,00,09,10.20
2013,10,01,00,10,10.20
2013,10,01,00,11,10.20
2013,10,01,00,12,10.20
2013,10,01,00,13,10.20
2013,10,01,00,14,10.20
2013,10,01,00,15,10.20
2013,10,01,00,16,10.30
2013,10,01,00,17,10.30
2013,10,01,00,18,10.30
2013,10,01,00,19,10.30
2013,10,01,00,20,10.30
2013,10,01,00,21,10.30
2013,10,01,00,22,10.30
2013,10,01,00,23,10.40
2013,10,01,00,24,10.40
2013,10,01,00,25,10.40
2013,10,01,00,26,10.40
2013,10,01,00,27,10.40
2013,10,01,00,28,10.40
2013,10,01,00,29,10.40
2013,10,01,00,30,10.40
2013,10,01,00,31,10.40
2013,10,01,00,32,10.40
2013,10,01,00,33,10.40
2013,10,01,00,34,10.40
2013,10,01,00,35,10.50
2013,10,01,00,36,10.50
2013,10,01,00,37,10.50
2013,10,01,00,38,10.50
2013,10,01,00,39,10.50
2013,10,01,00,40,10.50
2013,10,01,00,41,10.60
2013,10,01,00,42,10.60
2013,10,01,00,43,10.60
2013,10,01,00,44,10.60
2013,10,01,00,45,10.60
2013,10,01,00,46,10.60
2013,10,01,00,47,10.60
2013,10,01,00,48,10.60
2013,10,01,00,49,10.60
2013,10,01,00,50,10.60
2013,10,01,00,51,10.60
2013,10,01,00,52,10.60
2013,10,01,00,53,10.50
2013,10,01,00,54,10.50
2013,10,01,00,55,10.50
2013,10,01,00,56,10.50
2013,10,01,00,57,10.50
2013,10,01,00,58,10.50
2013,10,01,00,59,10.50
2013,10,01,01,00,10.50
2013,10,01,01,01,10.50
2013,10,01,01,02,10.50
2013,10,01,01,03,10.50
2013,10,01,01,04,10.40
2013,10,01,01,05,10.40
2013,10,01,01,06,10.40
2013,10,01,01,07,10.40
2013,10,01,01,08,10.40
2013,10,01,01,09,10.30
2013,10,01,01,10,10.30
2013,10,01,01,11,10.30
2013,10,01,01,12,10.30
2013,10,01,01,13,10.30
2013,10,01,01,14,10.40
2013,10,01,01,15,10.40
2013,10,01,01,16,10.40
2013,10,01,01,17,10.40
2013,10,01,01,18,10.40
2013,10,01,01,19,10.30
2013,10,01,01,20,10.30
2013,10,01,01,21,10.30
2013,10,01,01,22,10.30
2013,10,01,01,23,10.30
2013,10,01,01,24,10.30
2013,10,01,01,25,10.30
2013,10,01,01,26,10.30
2013,10,01,01,27,10.30
2013,10,01,01,28,10.30
2013,10,01,01,29,10.30
2013,10,01,01,30,10.30
2013,10,01,01,31,10.30
2013,10,01,01,32,10.30
2013,10,01,01,33,10.30
2013,10,01,01,34,10.30
2013,10,01,01,35,10.20
2013,10,01,01,36,10.20
2013,10,01,01,37,10.20
2013,10,01,01,38,10.10
2013,10,01,01,39,10.10
2013,10,01,01,40,10.10
2013,10,01,01,41,10.00
2013,10,01,01,42,10.00
2013,10,01,01,43,10.00
2013,10,01,01,44,10.00
2013,10,01,01,45,9.90
2013,10,01,01,46,9.90
2013,10,01,01,47,9.90
2013,10,01,01,48,9.80
2013,10,01,01,49,9.80
2013,10,01,01,50,9.80
2013,10,01,01,51,9.80
2013,10,01,01,52,9.80
2013,10,01,01,53,9.80
2013,10,01,01,54,9.80
2013,10,01,01,55,9.80
2013,10,01,01,56,9.80
2013,10,01,01,57,9.70
2013,10,01,01,58,9.70
2013,10,01,01,59,9.70
2013,10,01,02,00,9.70
2013,10,01,02,01,9.70
2013,10,01,02,02,9.70
2013,10,01,02,03,9.60
2013,10,01,02,04,9.60
2013,10,01,02,05,9.60
2013,10,01,02,06,9.60
2013,10,01,02,07,9.50
2013,10,01,02,08,9.50
2013,10,01,02,09,9.50
2013,10,01,02,10,9.40
2013,10,01,02,11,9.40
2013,10,01,02,12,9.40
2013,10,01,02,13,9.30
2013,10,01,02,14,9.30
2013,10,01,02,15,9.30
2013,10,01,02,16,9.30
2013,10,01,02,17,9.30
2013,10,01,02,18,9.30
2013,10,01,02,19,9.30
2013,10,01,02,20,9.20
2013,10,01,02,21,9.20
2013,10,01,02,22,9.20
2013,10,01,02,23,9.20
2013,10,01,02,24,9.20
2013,10,01,02,25,9.20
2013,10,01,02,26,9.10
2013,10,01,02,27,9.10
2013,10,01,02,28,9.10
2013,10,01,02,29,9.00
2013,10,01,02,30,9.00
2013,10,01,02,31,9.00
2013,10,01,02,32,8.90
2013,10,01,02,33,8.90
2013,10,01,02,34,8.90
2013,10,01,02,35,8.80
2013,10,01,02,36,8.80
2013,10,01,02,37,8.80
2013,10,01,02,38,8.80
2013,10,01,02,39,8.80
2013,10,01,02,40,8.80
2013,10,01,02,41,8.70
2013,10,01,02,42,8.70
2013,10,01,02,43,8.70
2013,10,01,02,44,8.70
2013,10,01,02,45,8.70
2013,10,01,02,46,8.70
2013,10,01,02,47,8.70
2013,10,01,02,48,8.60
2013,10,01,02,49,8.60
2013,10,01,02,50,8.60
2013,10,01,02,51,8.60
2013,10,01,02,52,8.60
2013,10,01,02,53,8.60
2013,10,01,02,54,8.60
2013,10,01,02,55,8.50
2013,10,01,02,56,8.50
2013,10,01,02,57,8.50
2013,10,01,02,58,8.50
2013,10,01,02,59,8.60
2013,10,01,03,00,8.60
2013,10,01,03,01,8.60
2013,10,01,03,02,8.60
2013,10,01,03,03,8.70
2013,10,01,03,04,8.70
2013,10,01,03,05,8.70
2013,10,01,03,06,8.70
2013,10,01,03,07,8.70
2013,10,01,03,08,8.70
2013,10,01,03,09,8.70
2013,10,01,03,10,8.80
2013,10,01,03,11,8.80
2013,10,01,03,12,8.80
2013,10,01,03,13,8.80
2013,10,01,03,14,8.90
2013,10,01,03,15,8.90
2013,10,01,03,16,8.90
2013,10,01,03,17,8.90
2013,10,01,03,18,8.90
2013,10,01,03,19,8.90
2013,10,01,03,20,8.90
2013,10,01,03,21,8.90
2013,10,01,03,22,8.90
2013,10,01,03,23,8.90
2013,10,01,03,24,8.90
2013,10,01,03,25,8.90
2013,10,01,03,26,8.80
2013,10,01,03,27,8.80
2013,10,01,03,28,8.80
2013,10,01,03,29,8.80
2013,10,01,03,30,8.80
2013,10,01,03,31,8.80
2013,10,01,03,32,8.80
2013,10,01,03,33,8.80
2013,10,01,03,34,8.80
2013,10,01,03,35,8.80
2013,10,01,03,36,8.80
2013,10,01,03,37,8.80
2013,10,01,03,38,8.80
2013,10,01,03,39,8.80
2013,10,01,03,40,8.70
2013,10,01,03,41,8.70
2013,10,01,03,42,8.70
2013,10,01,03,43,8.70
2013,10,01,03,44,8.70
2013,10,01,03,45,8.70
2013,10,01,03,46,8.70
2013,10,01,03,47,8.60
2013,10,01,03,48,8.60
2013,10,01,03,49,8.60
2013,10,01,03,50,8.60
2013,10,01,03,51,8.60
2013,10,01,03,52,8.60
2013,10,01,03,53,8.60
2013,10,01,03,54,8.60
2013,10,01,03,55,8.60
2013,10,01,03,56,8.50
2013,10,01,03,57,8.50
2013,10,01,03,58,8.50
2013,10,01,03,59,8.50
2013,10,01,04,00,8.50
2013,10,01,04,01,8.50
2013,10,01,04,02,8.50
2013,10,01,04,03,8.50
2013,10,01,04,04,8.50
2013,10,01,04,05,8.50
2013,10,01,04,06,8.50
2013,10,01,04,07,8.50
2013,10,01,04,08,8.50
2013,10,01,04,09,8.50
2013,10,01,04,10,8.50
2013,10,01,04,11,8.40
2013,10,01,04,12,8.40
2013,10,01,04,13,8.40
2013,10,01,04,14,8.40
2013,10,01,04,15,8.40
2013,10,01,04,16,8.40
2013,10,01,04,17,8.40
2013,10,01,04,18,8.40
2013,10,01,04,19,8.40
2013,10,01,04,20,8.40
2013,10,01,04,21,8.40
2013,10,01,04,22,8.40
2013,10,01,04,23,8.40
2013,10,01,04,24,8.40
2013,10,01,04,25,8.40
2013,10,01,04,26,8.40
2013,10,01,04,27,8.40
2013,10,01,04,28,8.30
2013,10,01,04,29,8.30
2013,10,01,04,30,8.30
2013,10,01,04,31,8.30
2013,10,01,04,32,8.30
2013,10,01,04,33,8.30
2013,10,01,04,34,8.30
2013,10,01,04,35,8.30
2013,10,01,04,36,8.30
2013,10,01,04,37,8.30
2013,10,01,04,38,8.30
2013,10,01,04,39,8.30
2013,10,01,04,40,8.30
2013,10,01,04,41,8.30
2013,10,01,04,42,8.30
2013,10,01,04,43,8.30
2013,10,01,04,44,8.30
2013,10,01,04,45,8.30
2013,10,01,04,46,8.30
2013,10,01,04,47,8.30
2013,10,01,04,48,8.20
2013,10,01,04,49,8.20
2013,10,01,04,50,8.30
2013,10,01,04,51,8.30
2013,10,01,04,52,8.30
2013,10,01,04,53,8.30
2013,10,01,04,54,8.30
2013,10,01,04,55,8.30
2013,10,01,04,56,8.30
2013,10,01,04,57,8.30
2013,10,01,04,58,8.40
2013,10,01,04,59,8.40
2013,10,01,05,00,8.40
2013,10,01,05,01,8.40
2013,10,01,05,02,8.40
2013,10,01,05,03,8.30
2013,10,01,05,04,8.30
2013,10,01,05,05,8.30
2013,10,01,05,06,8.30
2013,10,01,05,07,8.30
2013,10,01,05,08,8.30
2013,10,01,05,09,8.30
2013,10,01,05,10,8.30
2013,10,01,05,11,8.30
2013,10,01,05,12,8.40
2013,10,01,05,13,8.40
2013,10,01,05,14,8.40
2013,10,01,05,15,8.40
2013,10,01,05,16,8.40
2013,10,01,05,17,8.40
2013,10,01,05,18,8.40
2013,10,01,05,19,8.40
2013,10,01,05,20,8.40
2013,10,01,05,21,8.30
2013,10,01,05,22,8.40
2013,10,01,05,23,8.40
2013,10,01,05,24,8.50
2013,10,01,05,25,8.50
2013,10,01,05,26,8.50
2013,10,01,05,27,8.60
2013,10,01,05,28,8.60
2013,10,01,05,29,8.60
2013,10,01,05,30,8.60
2013,10,01,05,31,8.60
2013,10,01,05,32,8.60
2013,10,01,05,33,8.60
2013,10,01,05,34,8.60
2013,10,01,05,35,8.60
2013,10,01,05,36,8.60
2013,10,01,05,37,8.70
2013,10,01,05,38,8.80
2013,10,01,05,39,8.80
2013,10,01,05,40,8.90
2013,10,01,05,41,8.90
2013,10,01,05,42,9.00
2013,10,01,05,43,9.00
2013,10,01,05,44,9.10
2013,10,01,05,45,9.10
2013,10,01,05,46,9.10
2013,10,01,05,47,9.20
2013,10,01,05,48,9.20
2013,10,01,05,49,9.20
2013,10,01,05,50,9.20
2013,10,01,05,51,9.20
2013,10,01,05,52,9.20
2013,10,01,05,53,9.20
2013,10,01,05,54,9.20
2013,10,01,05,55,9.20
2013,10,01,05,56,9.20
2013,10,01,05,57,9.20
2013,10,01,05,58,9.20
2013,10,01,05,59,9.20
2013,10,01,06,00,9.20
2013,10,01,06,01,9.20
2013,10,01,06,02,9.20
2013,10,01,06,03,9.20
2013,10,01,06,04,9.20
2013,10,01,06,05,9.20
2013,10,01,06,06,9.20
2013,10,01,06,07,9.30
2013,10,01,06,08,9.20
2013,10,01,06,09,9.20
2013,10,01,06,10,9.20
2013,10,01,06,11,9.20
2013,10,01,06,12,9.20
2013,10,01,06,13,9.20
2013,10,01,06,14,9.20
2013,10,01,06,15,9.20
2013,10,01,06,16,9.20
2013,10,01,06,17,9.20
2013,10,01,06,18,9.20
2013,10,01,06,19,9.20
2013,10,01,06,20,9.20
2013,10,01,06,21,9.20
2013,10,01,06,22,9.20
2013,10,01,06,23,9.20
2013,10,01,06,24,9.20
2013,10,01,06,25,9.20
2013,10,01,06,26,9.20
2013,10,01,06,27,9.10
2013,10,01,06,28,9.10
2013,10,01,06,29,9.10
2013,10,01,06,30,9.10
2013,10,01,06,31,9.10
2013,10,01,06,32,9.10
2013,10,01,06,33,9.10
2013,10,01,06,34,9.10
2013,10,01,06,35,9.10
2013,10,01,06,36,9.10
2013,10,01,06,37,9.10
2013,10,01,06,38,9.10
2013,10,01,06,39,9.10
2013,10,01,06,40,9.10
2013,10,01,06,41,9.10
2013,10,01,06,42,9.00
2013,10,01,06,43,9.00
2013,10,01,06,44,8.90
2013,10,01,06,45,8.90
2013,10,01,06,46,8.90
2013,10,01,06,47,8.90
2013,10,01,06,48,8.80
2013,10,01,06,49,8.80
2013,10,01,06,50,8.80
2013,10,01,06,51,8.80
2013,10,01,06,52,8.80
2013,10,01,06,53,8.80
2013,10,01,06,54,8.80
2013,10,01,06,55,8.80
2013,10,01,06,56,8.80
2013,10,01,06,57,8.80
2013,10,01,06,58,8.80
2013,10,01,06,59,8.80
2013,10,01,07,00,8.80
2013,10,01,07,01,8.80
2013,10,01,07,02,8.70
2013,10,01,07,03,8.70
2013,10,01,07,04,8.70
2013,10,01,07,05,8.70
2013,10,01,07,06,8.70
2013,10,01,07,07,8.70
2013,10,01,07,08,8.70
2013,10,01,07,09,8.70
2013,10,01,07,10,8.60
2013,10,01,07,11,8.60
2013,10,01,07,12,8.60
2013,10,01,07,13,8.60
2013,10,01,07,14,8.60
2013,10,01,07,15,8.60
2013,10,01,07,16,8.60
2013,10,01,07,17,8.60
2013,10,01,07,18,8.60
2013,10,01,07,19,8.60
2013,10,01,07,20,8.50
2013,10,01,07,21,8.50
2013,10,01,07,22,8.50
2013,10,01,07,23,8.40
2013,10,01,07,24,8.40
2013,10,01,07,25,8.40
2013,10,01,07,26,8.40
2013,10,01,07,27,8.40
2013,10,01,07,28,8.40
2013,10,01,07,29,8.40
2013,10,01,07,30,8.40
2013,10,01,07,31,8.40
2013,10,01,07,32,8.40
2013,10,01,07,33,8.40
2013,10,01,07,34,8.40
2013,10,01,07,35,8.40
2013,10,01,07,36,8.40
2013,10,01,07,37,8.40
2013,10,01,07,38,8.40
2013,10,01,07,39,8.40
2013,10,01,07,40,8.40
2013,10,01,07,41,8.30
2013,10,01,07,42,8.30
2013,10,01,07,43,8.30
2013,10,01,07,44,8.30
2013,10,01,07,45,8.30
2013,10,01,07,46,8.30
2013,10,01,07,47,8.30
2013,10,01,07,48,8.30
2013,10,01,07,49,8.30
2013,10,01,07,50,8.30
2013,10,01,07,51,8.30
2013,10,01,07,52,8.30
2013,10,01,07,53,8.30
2013,10,01,07,54,8.30
2013,10,01,07,55,8.30
2013,10,01,07,56,8.30
2013,10,01,07,57,8.30
2013,10,01,07,58,8.30
2013,10,01,07,59,8.30
2013,10,01,08,00,8.40
2013,10,01,08,01,8.40
2013,10,01,08,02,8.40
2013,10,01,08,03,8.40
2013,10,01,08,04,8.40
2013,10,01,08,05,8.40
2013,10,01,08,06,8.40
2013,10,01,08,07,8.40
2013,10,01,08,08,8.40
2013,10,01,08,09,8.40
2013,10,01,08,10,8.40
2013,10,01,08,11,8.40
2013,10,01,08,12,8.40
2013,10,01,08,13,8.40
2013,10,01,08,14,8.40
2013,10,01,08,15,8.40
2013,10,01,08,16,8.40
2013,10,01,08,17,8.40
2013,10,01,08,18,8.40
2013,10,01,08,19,8.50
2013,10,01,08,20,8.50
2013,10,01,08,21,8.50
2013,10,01,08,22,8.50
2013,10,01,08,23,8.50
2013,10,01,08,24,8.60
2013,10,01,08,25,8.60
2013,10,01,08,26,8.60
2013,10,01,08,27,8.60
2013,10,01,08,28,8.60
2013,10,01,08,29,8.70
2013,10,01,08,30,8.70
2013,10,01,08,31,8.70
2013,10,01,08,32,8.70
2013,10,01,08,33,8.70
2013,10,01,08,34,8.80
2013,10,01,08,35,8.80
2013,10,01,08,36,8.80
2013,10,01,08,37,8.80
2013,10,01,08,38,8.80
2013,10,01,08,39,8.80
2013,10,01,08,40,8.80
2013,10,01,08,41,8.80
2013,10,01,08,42,8.90
2013,10,01,08,43,8.90
2013,10,01,08,44,8.90
2013,10,01,08,45,8.90
2013,10,01,08,46,8.90
2013,10,01,08,47,8.90
2013,10,01,08,48,8.90
2013,10,01,08,49,9.00
2013,10,01,08,50,9.00
2013,10,01,08,51,9.00
2013,10,01,08,52,9.00
2013,10,01,08,53,9.00
2013,10,01,08,54,9.10
2013,10,01,08,55,9.10
2013,10,01,08,56,9.10
2013,10,01,08,57,9.10
2013,10,01,08,58,9.20
2013,10,01,08,59,9.20
2013,10,01,09,00,9.20
2013,10,01,09,01,9.20
2013,10,01,09,02,9.20
2013,10,01,09,03,9.20
2013,10,01,09,04,9.20
2013,10,01,09,05,9.30
2013,10,01,09,06,9.30
2013,10,01,09,07,9.30
2013,10,01,09,08,9.40
2013,10,01,09,09,9.40
2013,10,01,09,10,9.50
2013,10,01,09,11,9.60
2013,10,01,09,12,9.60
2013,10,01,09,13,9.60
2013,10,01,09,14,9.60
2013,10,01,09,15,9.70
2013,10,01,09,16,9.70
2013,10,01,09,17,9.70
2013,10,01,09,18,9.70
2013,10,01,09,19,9.70
2013,10,01,09,20,9.70
2013,10,01,09,21,9.80
2013,10,01,09,22,9.80
2013,10,01,09,23,9.90
2013,10,01,09,24,10.00
2013,10,01,09,25,10.10
2013,10,01,09,26,10.20
2013,10,01,09,27,10.30
2013,10,01,09,28,10.30
2013,10,01,09,29,10.40
2013,10,01,09,30,10.50
2013,10,01,09,31,10.60
2013,10,01,09,32,10.60
2013,10,01,09,33,10.70
2013,10,01,09,34,10.80
2013,10,01,09,35,10.80
2013,10,01,09,36,10.80
2013,10,01,09,37,10.80
2013,10,01,09,38,10.80
2013,10,01,09,39,10.80
2013,10,01,09,40,10.80
2013,10,01,09,41,10.80
2013,10,01,09,42,10.80
2013,10,01,09,43,10.80
2013,10,01,09,44,10.80
2013,10,01,09,45,10.80
2013,10,01,09,46,10.80
2013,10,01,09,47,10.80
2013,10,01,09,48,10.80
2013,10,01,09,49,10.90
2013,10,01,09,50,11.00
2013,10,01,09,51,11.00
2013,10,01,09,52,11.10
2013,10,01,09,53,11.10
2013,10,01,09,54,11.10
2013,10,01,09,55,11.10
2013,10,01,09,56,11.10
2013,10,01,09,57,11.20
2013,10,01,09,58,11.20
2013,10,01,09,59,11.30
2013,10,01,10,00,11.30
2013,10,01,10,01,11.30
2013,10,01,10,02,11.30
2013,10,01,10,03,11.40
2013,10,01,10,04,11.40
2013,10,01,10,05,11.50
2013,10,01,10,06,11.50
2013,10,01,10,07,11.50
2013,10,01,10,08,11.50
2013,10,01,10,09,11.50
2013,10,01,10,10,11.40
2013,10,01,10,11,11.50
2013,10,01,10,12,11.50
2013,10,01,10,13,11.50
2013,10,01,10,14,11.60
2013,10,01,10,15,11.70
2013,10,01,10,16,11.70
2013,10,01,10,17,11.70
2013,10,01,10,18,11.70
2013,10,01,10,19,11.70
2013,10,01,10,20,11.80
2013,10,01,10,21,11.90
2013,10,01,10,22,11.90
2013,10,01,10,23,12.00
2013,10,01,10,24,12.00
2013,10,01,10,25,12.10
2013,10,01,10,26,12.20
2013,10,01,10,27,12.30
2013,10,01,10,28,12.40
2013,10,01,10,29,12.40
2013,10,01,10,30,12.50
2013,10,01,10,31,12.60
2013,10,01,10,32,12.60
2013,10,01,10,33,12.50
2013,10,01,10,34,12.40
2013,10,01,10,35,12.30
2013,10,01,10,36,12.30
2013,10,01,10,37,12.20
2013,10,01,10,38,12.20
2013,10,01,10,39,12.10
2013,10,01,10,40,12.10
2013,10,01,10,41,12.10
2013,10,01,10,42,12.10
2013,10,01,10,43,12.10
2013,10,01,10,44,12.10
2013,10,01,10,45,12.10
2013,10,01,10,46,12.10
2013,10,01,10,47,12.20
2013,10,01,10,48,12.20
2013,10,01,10,49,12.20
2013,10,01,10,50,12.20
2013,10,01,10,51,12.20
2013,10,01,10,52,12.20
2013,10,01,10,53,12.30
2013,10,01,10,54,12.30
2013,10,01,10,55,12.40
2013,10,01,10,56,12.40
2013,10,01,10,57,12.40
2013,10,01,10,58,12.40
2013,10,01,10,59,12.30
2013,10,01,11,00,12.30
2013,10,01,11,01,12.40
2013,10,01,11,02,12.50
2013,10,01,11,03,12.50
2013,10,01,11,04,12.60
2013,10,01,11,05,12.70
2013,10,01,11,06,12.70
2013,10,01,11,07,12.80
2013,10,01,11,08,12.80
2013,10,01,11,09,12.80
2013,10,01,11,10,12.80
2013,10,01,11,11,12.80
2013,10,01,11,12,12.80
2013,10,01,11,13,12.80
2013,10,01,11,14,12.80
2013,10,01,11,15,12.90
2013,10,01,11,16,13.00
2013,10,01,11,17,13.00
2013,10,01,11,18,13.00
2013,10,01,11,19,13.10
2013,10,01,11,20,13.20
2013,10,01,11,21,13.20
2013,10,01,11,22,13.30
2013,10,01,11,23,13.30
2013,10,01,11,24,13.30
2013,10,01,11,25,13.20
2013,10,01,11,26,13.20
2013,10,01,11,27,13.10
2013,10,01,11,28,13.10
2013,10,01,11,29,13.10
2013,10,01,11,30,13.00
2013,10,01,11,31,12.90
2013,10,01,11,32,12.90
2013,10,01,11,33,12.90
2013,10,01,11,34,12.90
2013,10,01,11,35,12.90
2013,10,01,11,36,12.90
2013,10,01,11,37,13.00
2013,10,01,11,38,13.10
2013,10,01,11,39,13.10
2013,10,01,11,40,13.20
2013,10,01,11,41,13.20
2013,10,01,11,42,13.20
2013,10,01,11,43,13.20
2013,10,01,11,44,13.30
2013,10,01,11,45,13.30
2013,10,01,11,46,13.30
2013,10,01,11,47,13.30
2013,10,01,11,48,13.40
2013,10,01,11,49,13.30
2013,10,01,11,50,13.40
2013,10,01,11,51,13.40
2013,10,01,11,52,13.50
2013,10,01,11,53,13.60
2013,10,01,11,54,13.70
2013,10,01,11,55,13.70
2013,10,01,11,56,13.70
2013,10,01,11,57,13.80
2013,10,01,11,58,13.90
2013,10,01,11,59,13.90
2013,10,01,12,00,13.90
2013,10,01,12,01,13.90
2013,10,01,12,02,14.00
2013,10,01,12,03,14.00
2013,10,01,12,04,14.00
2013,10,01,12,05,14.10
2013,10,01,12,06,14.10
2013,10,01,12,07,14.10
2013,10,01,12,08,13.90
2013,10,01,12,09,13.70
2013,10,01,12,10,13.50
2013,10,01,12,11,13.40
2013,10,01,12,12,13.30
2013,10,01,12,13,13.20
2013,10,01,12,14,13.10
2013,10,01,12,15,13.10
2013,10,01,12,16,13.00
2013,10,01,12,17,12.80
2013,10,01,12,18,12.80
2013,10,01,12,19,12.70
2013,10,01,12,20,12.70
2013,10,01,12,21,12.60
2013,10,01,12,22,12.60
2013,10,01,12,23,12.50
2013,10,01,12,24,12.50
2013,10,01,12,25,12.50
2013,10,01,12,26,12.40
2013,10,01,12,27,12.30
2013,10,01,12,28,12.30
2013,10,01,12,29,12.30
2013,10,01,12,30,12.40
2013,10,01,12,31,12.50
2013,10,01,12,32,12.60
2013,10,01,12,33,12.60
2013,10,01,12,34,12.60
2013,10,01,12,35,12.70
2013,10,01,12,36,12.80
2013,10,01,12,37,12.80
2013,10,01,12,38,12.90
2013,10,01,12,39,12.90
2013,10,01,12,40,12.90
2013,10,01,12,41,12.90
2013,10,01,12,42,12.90
2013,10,01,12,43,13.00
2013,10,01,12,44,13.00
2013,10,01,12,45,12.90
2013,10,01,12,46,12.90
2013,10,01,12,47,12.80
2013,10,01,12,48,12.80
2013,10,01,12,49,12.70
2013,10,01,12,50,12.70
2013,10,01,12,51,12.60
2013,10,01,12,52,12.50
2013,10,01,12,53,12.40
2013,10,01,12,54,12.30
2013,10,01,12,55,12.30
2013,10,01,12,56,12.30
2013,10,01,12,57,12.40
2013,10,01,12,58,12.50
2013,10,01,12,59,12.60
2013,10,01,13,00,12.70
2013,10,01,13,01,12.80
2013,10,01,13,02,12.70
2013,10,01,13,03,12.70
2013,10,01,13,04,12.70
2013,10,01,13,05,12.70
2013,10,01,13,06,12.70
2013,10,01,13,07,12.70
2013,10,01,13,08,12.70
2013,10,01,13,09,12.70
2013,10,01,13,10,12.70
2013,10,01,13,11,12.70
2013,10,01,13,12,12.80
2013,10,01,13,13,12.80
2013,10,01,13,14,12.80
2013,10,01,13,15,12.80
2013,10,01,13,16,12.90
2013,10,01,13,17,12.90
2013,10,01,13,18,12.90
2013,10,01,13,19,12.80
2013,10,01,13,20,12.80
2013,10,01,13,21,12.80
2013,10,01,13,22,12.90
2013,10,01,13,23,12.90
2013,10,01,13,24,12.80
2013,10,01,13,25,12.80
2013,10,01,13,26,12.80
2013,10,01,13,27,12.90
2013,10,01,13,28,12.90
2013,10,01,13,29,12.80
2013,10,01,13,30,12.80
2013,10,01,13,31,12.70
2013,10,01,13,32,12.70
2013,10,01,13,33,12.60
2013,10,01,13,34,12.60
2013,10,01,13,35,12.50
2013,10,01,13,36,12.60
2013,10,01,13,37,12.60
2013,10,01,13,38,12.60
2013,10,01,13,39,12.60
2013,10,01,13,40,12.70
2013,10,01,13,41,12.70
2013,10,01,13,42,12.70
2013,10,01,13,43,12.80
2013,10,01,13,44,12.80
2013,10,01,13,45,12.80
2013,10,01,13,46,12.80
2013,10,01,13,47,12.70
2013,10,01,13,48,12.60
2013,10,01,13,49,12.50
2013,10,01,13,50,12.40
2013,10,01,13,51,12.40
2013,10,01,13,52,12.30
2013,10,01,13,53,12.30
2013,10,01,13,54,12.30
2013,10,01,13,55,12.30
2013,10,01,13,56,12.30
2013,10,01,13,57,12.30
2013,10,01,13,58,12.30
2013,10,01,13,59,12.30
2013,10,01,14,00,12.30
2013,10,01,14,01,12.30
2013,10,01,14,02,12.30
2013,10,01,14,03,12.30
2013,10,01,14,04,12.40
2013,10,01,14,05,12.40
2013,10,01,14,06,12.40
2013,10,01,14,07,12.40
2013,10,01,14,08,12.40
2013,10,01,14,09,12.50
2013,10,01,14,10,12.50
2013,10,01,14,11,12.40
2013,10,01,14,12,12.50
2013,10,01,14,13,12.50
2013,10,01,14,14,12.50
2013,10,01,14,15,12.40
2013,10,01,14,16,12.30
2013,10,01,14,17,12.30
2013,10,01,14,18,12.30
2013,10,01,14,19,12.30
2013,10,01,14,20,12.30
2013,10,01,14,21,12.30
2013,10,01,14,22,12.30
2013,10,01,14,23,12.30
2013,10,01,14,24,12.30
2013,10,01,14,25,12.30
2013,10,01,14,26,12.30
2013,10,01,14,27,12.30
2013,10,01,14,28,12.30
2013,10,01,14,29,12.30
2013,10,01,14,30,12.30
2013,10,01,14,31,12.30
2013,10,01,14,32,12.30
2013,10,01,14,33,12.30
2013,10,01,14,34,12.20
2013,10,01,14,35,12.20
2013,10,01,14,36,12.20
2013,10,01,14,37,12.20
2013,10,01,14,38,12.20
2013,10,01,14,39,12.20
2013,10,01,14,40,12.20
2013,10,01,14,41,12.30
2013,10,01,14,42,12.30
2013,10,01,14,43,12.30
2013,10,01,14,44,12.30
2013,10,01,14,45,12.30
2013,10,01,14,46,12.30
2013,10,01,14,47,12.30
2013,10,01,14,48,12.30
2013,10,01,14,49,12.30
2013,10,01,14,50,12.30
2013,10,01,14,51,12.30
2013,10,01,14,52,12.20
2013,10,01,14,53,12.20
2013,10,01,14,54,12.20
2013,10,01,14,55,12.20
2013,10,01,14,56,12.20
2013,10,01,14,57,12.20
2013,10,01,14,58,12.20
2013,10,01,14,59,12.20
2013,10,01,15,00,12.20
2013,10,01,15,01,12.20
2013,10,01,15,02,12.20
2013,10,01,15,03,12.20
2013,10,01,15,04,12.30
2013,10,01,15,05,12.30
2013,10,01,15,06,12.30
2013,10,01,15,07,12.30
2013,10,01,15,08,12.20
2013,10,01,15,09,12.20
2013,10,01,15,10,12.20
2013,10,01,15,11,12.20
2013,10,01,15,12,12.20
2013,10,01,15,13,12.20
2013,10,01,15,14,12.20
2013,10,01,15,15,12.20
2013,10,01,15,16,12.20
2013,10,01,15,17,12.20
2013,10,01,15,18,12.20
2013,10,01,15,19,12.20
2013,10,01,15,20,12.20
2013,10,01,15,21,12.10
2013,10,01,15,22,12.10
2013,10,01,15,23,12.10
2013,10,01,15,24,12.10
2013,10,01,15,25,12.10
2013,10,01,15,26,12.10
2013,10,01,15,27,12.10
2013,10,01,15,28,12.10
2013,10,01,15,29,12.10
2013,10,01,15,30,12.10
2013,10,01,15,31,12.00
2013,10,01,15,32,12.00
2013,10,01,15,33,12.00
2013,10,01,15,34,12.00
2013,10,01,15,35,12.00
2013,10,01,15,36,12.00
2013,10,01,15,37,12.00
2013,10,01,15,38,12.00
2013,10,01,15,39,12.00
2013,10,01,15,40,12.00
2013,10,01,15,41,12.00
2013,10,01,15,42,12.00
2013,10,01,15,43,12.10
2013,10,01,15,44,12.10
2013,10,01,15,45,12.10
2013,10,01,15,46,12.10
2013,10,01,15,47,12.10
2013,10,01,15,48,12.10
2013,10,01,15,49,12.10
2013,10,01,15,50,12.10
2013,10,01,15,51,12.10
2013,10,01,15,52,12.10
2013,10,01,15,53,12.10
2013,10,01,15,54,12.00
2013,10,01,15,55,12.00
2013,10,01,15,56,12.00
2013,10,01,15,57,11.90
2013,10,01,15,58,11.90
2013,10,01,15,59,11.90
2013,10,01,16,00,11.90
2013,10,01,16,01,11.90
2013,10,01,16,02,11.90
2013,10,01,16,03,11.90
2013,10,01,16,04,11.90
2013,10,01,16,05,11.90
2013,10,01,16,06,11.90
2013,10,01,16,07,11.90
2013,10,01,16,08,11.90
2013,10,01,16,09,11.80
2013,10,01,16,10,11.80
2013,10,01,16,11,11.80
2013,10,01,16,12,11.80
2013,10,01,16,13,11.80
2013,10,01,16,14,11.80
2013,10,01,16,15,11.80
2013,10,01,16,16,11.80
2013,10,01,16,17,11.80
2013,10,01,16,18,11.80
2013,10,01,16,19,11.80
2013,10,01,16,20,11.80
2013,10,01,16,21,11.80
2013,10,01,16,22,11.80
2013,10,01,16,23,11.80
2013,10,01,16,24,11.80
2013,10,01,16,25,11.80
2013,10,01,16,26,11.80
2013,10,01,16,27,11.80
2013,10,01,16,28,11.70
2013,10,01,16,29,11.70
2013,10,01,16,30,11.70
2013,10,01,16,31,11.70
2013,10,01,16,32,11.70
2013,10,01,16,33,11.70
2013,10,01,16,34,11.70
2013,10,01,16,35,11.70
2013,10,01,16,36,11.70
2013,10,01,16,37,11.70
2013,10,01,16,38,11.70
2013,10,01,16,39,11.70
2013,10,01,16,40,11.70
2013,10,01,16,41,11.70
2013,10,01,16,42,11.70
2013,10,01,16,43,11.70
2013,10,01,16,44,11.70
2013,10,01,16,45,11.70
2013,10,01,16,46,11.70
2013,10,01,16,47,11.70
2013,10,01,16,48,11.70
2013,10,01,16,49,11.70
2013,10,01,16,50,11.70
2013,10,01,16,51,11.70
2013,10,01,16,52,11.70
2013,10,01,16,53,11.70
2013,10,01,16,54,11.70
2013,10,01,16,55,11.70
2013,10,01,16,56,11.70
2013,10,01,16,57,11.70
2013,10,01,16,58,11.70
2013,10,01,16,59,11.70
2013,10,01,17,00,11.70
2013,10,01,17,01,11.70
2013,10,01,17,02,11.70
2013,10,01,17,03,11.70
2013,10,01,17,04,11.70
2013,10,01,17,05,11.70
2013,10,01,17,06,11.70
2013,10,01,17,07,11.70
2013,10,01,17,08,11.70
2013,10,01,17,09,11.70
2013,10,01,17,10,11.70
2013,10,01,17,11,11.70
2013,10,01,17,12,11.70
2013,10,01,17,13,11.70
2013,10,01,17,14,11.70
2013,10,01,17,15,11.70
2013,10,01,17,16,11.70
2013,10,01,17,17,11.70
2013,10,01,17,18,11.70
2013,10,01,17,19,11.70
2013,10,01,17,20,11.70
2013,10,01,17,21,11.70
2013,10,01,17,22,11.70
2013,10,01,17,23,11.70
2013,10,01,17,24,11.70
2013,10,01,17,25,11.70
2013,10,01,17,26,11.70
2013,10,01,17,27,11.70
2013,10,01,17,28,11.70
2013,10,01,17,29,11.70
2013,10,01,17,30,11.70
2013,10,01,17,31,11.70
2013,10,01,17,32,11.70
2013,10,01,17,33,11.70
2013,10,01,17,34,11.70
2013,10,01,17,35,11.70
2013,10,01,17,36,11.70
2013,10,01,17,37,11.70
2013,10,01,17,38,11.70
2013,10,01,17,39,11.70